Location: ??????
(41.3164°N, 22.6615°E)
Time: 07:56:59
(UTC+00:00)

CUBESAT XI-V - Pass Details

Date: 05 July 2022
Orbit: 668 x 690 km, 98.1° (Epoch: 15 August)

Event Time Altitude Azimuth Distance (km) Brightness Sun altitude
Exits shadow 23:23:58 20° 106° (ESE) 1,537 ? -24.9°
Maximum altitude 23:25:55 27° 68° (ENE) 1,282 ? -24.9°
Drops below altitude 10° 23:29:46 10° 11° (N) 2,105 ? -24.7°
Sets 23:32:16 0° 359° (N) 3,021 ? -24.6°
